Timeline UpdatesTrip UpdatesNews PostsPvt PostsTravel TipsAdmin PostsConv PostsFollowed PostsChat RequestsBlog PostsPNR Posts

Disclaimer
Search
 
 
Tue Sep 16, 2014 12:57:11 ISTHomeTrainsΣChainsAtlasPNRForumGalleryNewsFAQTripsMembersLoginFeedback
No Recent News for this Train
Other Trains in the News **new
Latest...
One Sleeper and unreserved coach for Mumbai is attached from Nandurbar. These coaches are attached to 59442 Ahmedabad Mumbai passenger at Surat.
Mon Apr 18, 2011 (09:18PM)
⇐ Return Journey: Train# 59441-Slip

59076-Slip/Bhusaval -Mumbai Passenger Slip(Via Surat)

Time-Table HAS CHANGED.
Sep 04 (10:12PM)
Change Departure Station:
Change Arrival Station:
Post a Train Travel TipPost a Train Travel Tip **new
Post a Comment/Question/Picture/VideoPost a Comment/Question/Picture/Video
Pantry/Catering
???
Loco/Rake Reversals
ST/Surat (4);
RSA - Rake Sharing
Rake/Coach Composition
Loco
News    PNR    Forum    Time-Table    Availability    Fare Chart    Map    Arr/Dep History    Trips    Gallery    ΣChains    X/O    Timeline    
Travel Time: 11h 2m    44 halts    Distance: 326 km    Avg Speed: 29 km/hr
Type: Passenger
Zone: WR/Western
Departs @ 14:30 (Avg 7m late)
Platform# ???
SMTWTFS
Nandurbar/NDB 
Arrives @ 01:32 +1 night
Platform# 3
SMTWTFS
Boisar/BOR 

44 halts. 52 intermediate Stations between Nandurbar and Boisar

Show ALL intermediate Stations  Show Old Time-Table

#CodeStation NameX/OArrivesAvgDepartsAvgHaltPFDay#KmSpeedElevZoneAddress
1BSLBhusaval Junction (8)  -08:45+9--1-174.158208mCRBhusaval 425201, Maharashtra
2BDIBhadli (2)  08:58+1009:00+102m--1-161.530211mCRBhadli, Maharashtra
3JLJalgaon Junction (4)  09:23+609:25+102m21-150.037213mCRJalgaon 425001, Maharashtra
4PLDPaldhi (2)  09:43+1409:45+152m--1-138.953208mWRPaldhi, Maharashtra
5CHLKChavalkhedeX  09:58+1510:00+192m--1-127.427196mWRState Highway 185, Maharashtra
6DXGDharangaon (2)  10:16+1710:18+172m--1-120.257217mWRDharangaon, Maharashtra
7BHNEBhone (2)  10:26-10:28-2m--1-112.650196mWRState Highway 185, Maharashtra
8TKHETakarkhede (1)  10:35+1510:37+162m11-106.843203mWRState Highway 6, Maharashtra
9ANAmalner (2)X  10:53+1410:55+142m11-95.340188mWRAmalner, Maharashtra
10BRTKBhortex  11:07+1411:09+142m--1-87.353180mWRVadhoda, Maharashtra
11PDPPadse  11:18+1511:20+162m--1-79.448181mWRDhule, Maharashtra
12BEWBetavad (1)  11:27-11:29-2m11-73.858178mWRState Highway 6, Maharashtra
13NDNNardana (1)  11:36+1511:38+162m11-67.042184mWRNardana, Maharashtra
14HOLHol (1)  11:45+1811:47+182m11-62.163185mWRState Highway 6, Maharashtra
15SNKSindkheda (1)X  11:55+2111:57+222m11-53.843178mWRState Highway 11, Maharashtra
16SNSLSonshelu (1)  12:06-12:08-2m11-47.348185mWRMSH1, Maharashtra
17VKHVikhran (1)X  12:14+1912:16+192m11-42.533176mWRMSH1, Maharashtra
18DDEDondaicha (2)  12:31+1312:33+142m11-34.455163mWRDondaicha, Maharashtra
19RNLRanala (1)X  12:46+1212:48+212m11-22.433164mWRState Highway 6, Maharashtra
20TISITisi (1)  13:05+1413:07+132m11-12.931185mWRState Highway 7, Maharashtra
21CUEChoupale (1) new halt!!X  13:22+013:24+92m--1-5.115208mWRNehru Nagar, Maharashtra
22NDB»Nandurbar (3)»X  13:45+414:30+745m--10.060203mWRNandurbar, Maharashtra
23DWDDhekwad (1)  14:39+1214:41+132m119.048209mWRState Highway 5, Maharashtra
24KBHKhandbara (1)X  14:58+1915:00+212m1122.653198mWRKhandbara, Maharashtra
25KHTGKhatgaon (1)  15:10+2315:12+242m1131.453178mWRState Highway 5, Maharashtra
26CPDChinchpada (1)  15:23+2515:25+312m1141.248178mWRGangapur, Maharashtra
27KFFKolda (1)  15:33+3215:35+312m1147.539160mWRGangapur, Maharashtra
28NWUNavapur (2)  15:51+2715:53+292m--157.955124mWRNavapur, Gujarat
29BBAIBhadbhunja (1)  16:05+3216:07+312m1169.025126mWRGujarat 394375 ?, Gujarat
30LKKDLakkad Kot (1)  16:19+2916:21+302m1173.936122mWRGujarat 394375 ?, Gujarat
31USDUkai Songadh (2)  16:33+2916:35+302m1181.239139mWRSongadh, Gujarat
32DSDDosvada (1)  16:42-16:44-2m1185.717121mWRNational Highway 6, Gujarat
33KKRDKikakui Road (1)O  16:53+2716:55+302m1188.316114mWRGujarat 394650 ?, Gujarat
34VYAVyara (2)  17:38+317:40+42m1199.84390mWRVyara, Gujarat
35LTVLotarva (1)  17:49+617:51+52m11106.34657mWRSankr Main Rd, Gujarat
36KRAIKaher (1)X  17:55-17:57-2m11109.44055mWRKaher, Gujarat
37MIDMadhi (1)  18:05+518:07+92m11114.83245mWRMadhi, Gujarat
38MGRLMangrolla (1)  18:17-18:19-2m11120.13336mWRPipariya, Gujarat
39TBVTimbarva (1)  18:24+618:26+62m11122.83435mWRTimberva, Gujarat
40BIYBardoli (2)  18:38+418:40+112m--1129.62135mWRNear Bardoli Sugar Factory Bardoli, Gujarat
41GGARGangadhara (1)X  18:58+419:00+152m11135.81527mWRKareli, Gujarat
42BGMRBagumra (1) new halt!!  19:21-19:23-2m--1140.94422mWRNational Highway 6, Gujarat
43CHMChalthan (1)  19:29+419:31+72m11145.35023mWRKadodra, Gujarat
44NOLNiyol (1)  19:37-19:39-2m11150.32818mWRSurat, Gujarat
45UDNUdhna Junction (3) new halt!!XO  19:53-19:55-2m21156.81616mWRUdhna 394210, Gujarat
46STSurat (4)XOO20:10+521:30+2:3080m41160.83819mWRSurat 395001, Gujarat
47BHETBhestan (2)X  21:44-21:46-2m21169.64913mWRSurat, Gujarat
48SCHSachin (3)XO  21:53-21:55-2m--1175.36611mWRKansad Road Sachin, Gujarat
49MRLMaroli (3)  22:01-22:03-2m--1182.06315mWRMaroli, Gujarat
50NVSNavsari (3)X  22:11-22:13-2m--1190.44614mWRNavsari, Gujarat
51VDHVedchha (3)XO  22:24-22:26-2m--1198.95113mWRNavsari, Gujarat
52ACLAncheli (2)X  22:30-22:32-2m--1202.24620mWRNavsari, Gujarat
53AMLAmalsad (3)  22:37-22:39-2m--1206.05612mWRAmalsad, Gujarat
54BIMBilimora Junction (4)O  22:45-22:47-2m--1211.66811mWRBilimora, Gujarat
55DGIDungri (3)X  22:55-22:57-2m--1220.62320mWRNH 8, Gujarat
56BLValsad (3)X  23:20-23:30-10m31229.56415mWRValsad, Gujarat
57PADPardi (3)X  23:40-23:42-2m--1240.26019mWRValsad, Gujarat
58UVDUdvada (3)  23:48-23:50-2m--1246.25218mWRUdvada, Gujarat
59VAPIVapi (3)XO  00:01-00:02-1m--2255.84827mWRVapi, Gujarat
60KEBKarambeli (2)X  00:10-00:11-1m--2262.24829mWRNational Highway 8, Gujarat
61BLDBhilad (3)X  00:17-00:19-2m--2267.06933mWRBhilad, Gujarat
62SJNSanjan (3)X  00:29-00:31-2m--2278.65422mWRSanjan, Gujarat
63UBRUmbargam Road (3)X  00:37-00:39-2m--2284.06130mWRUmbergaon, Gujarat
64GVDGholvad (4)XO  00:48-00:50-2m--2293.24214mWRGholvad, Maharashtra
65DRDDahanu Road (5)XO  01:06-01:08-2m--2304.35712mWRDahanu, Maharashtra
66VGNVangaon (3)XO  01:21-01:23-2m--2316.66311mWRDist. Palghar, Maharashtra
67BOR•Boisar (3)•X  01:32-01:34-2m32326.04817mWRBoisar Tel.no-02525-266626, Maharashtra
68PLGPalghar (3)X  01:48-01:50-2m--2337.34619mWRPalghar, Maharashtra
69KLVKelve Road (3)O  02:01-02:03-2m--2345.74310mWRDist. Palghar, Maharashtra
70SAHSaphale (2)O  02:12-02:14-2m22352.1348mWRDist. Palghar, Maharashtra
71VRVirar (8)  02:43-02:45-2m--2368.4286mWRDist. Palghar, Maharashtra
72BSRVasai Road (7)  03:03-03:05-2m52376.8587mWRVasai 401202, Maharashtra
73BVIMumbai Borivali (8)  03:23-03:25-2m52394.23719mWRMumbai - 400092, Maharashtra
74DDRMumbai Dadar Western (6)  04:03-04:05-2m52418.0126mWRMumbai, Maharashtra
75BCTMumbai Central (9)  04:35--52423.9-3mWRMumbai 400008, Maharashtra
Scroll to Top
Scroll to Bottom